Regional Weather Roundup
Issued by NWS Green Bay, WI

Home | Current Version | Previous Version | Graphics & Text | Print | Product List | Glossary Off
Versions: 1 2 3 4 5 6 7 8 9 10 11 12 13 14 15 16 17 18 19 20 21 22 23 24 25 26 27 28 29 30 31 32 33 34 35 36 37 38 39 40 41 42 43 44 45 46 47 48 49 50

000
ASUS43 KGRB 161111
RWRGRB

NORTH-CENTRAL AND NORTHEAST WISCONSIN REGIONAL WEATHER ROUNDUP
NATIONAL WEATHER SERVICE GREEN BAY WI
500 AM CST TUE JAN 16 2018

WIZ005-009-010>012-018-019-161200-
NORTH CENTRAL WISCONSIN

CITY           SKY/WX    TMP DP  RH WIND       PRES   REMARKS
IRONWOOD       LGT SNOW  17  15  92 N5        30.49R FOG     WCI  10
MANITOWISH WTR LGT SNOW   8   8  97 CALM      30.43S
ARBOR VITAE    LGT SNOW   6   4  89 N3        30.42S
EAGLE RIVER    FLURRIES   0  -4  84 CALM      30.41R
LAND O LAKES   FLURRIES  12  10  89 N6        30.42S WCI   3
RHINELANDER    FAIR       8   5  87 N3        30.41S
PHILLIPS       CLOUDY    -3  -6  88 CALM      30.45S
ANTIGO         FAIR       2   0  92 CALM      30.41R
TOMAHAWK       FAIR      -8 -12  83 CALM      30.44S
MERRILL        FAIR       0  -3  87 CALM      30.45R
$$

WIZ013-073-161200-
NORTHEAST WISCONSIN

CITY           SKY/WX    TMP DP  RH WIND       PRES   REMARKS
IRON MOUNTAIN  FAIR      -4  -8  83 CALM      30.41R
MARINETTE      FAIR       7   4  87 N7        30.46R WCI  -5
OCONTO         CLOUDY    11   7  83 N7        30.45R WCI   0
$$

WIZ017-030-035>037-045-161200-
CENTRAL WISCONSIN

CITY           SKY/WX    TMP DP  RH WIND       PRES   REMARKS
MEDFORD        MOCLDY     6   3  86 N5        30.44R WCI  -2
WAUSAU         FAIR       7   5  91 NW8       30.43R WCI  -6
MOSINEE        FAIR       9   9 100 N8        30.44R WCI  -4
MARSHFIELD     FAIR       8   5  87 N7        30.44R WCI  -3
WISC RAPIDS    FAIR       8   4  83 N7        30.47R WCI  -3
STEVENS POINT  MOCLDY     5   4  96 N3        30.45R
WAUPACA        FAIR      14   9  81 NW7       30.45R WCI   4
SHAWANO        FAIR      11   7  86 CALM      30.45R
CLINTONVILLE   FAIR      12   9  85 N7        30.45R WCI   2
WAUTOMA        CLOUDY    12   8  84 NW7       30.45R WCI   1
$$

WIZ038-039-048-051-161200-
FOX VALLEY

CITY           SKY/WX    TMP DP  RH WIND       PRES   REMARKS
NWS GREEN BAY  CLOUDY    13   9  84 N10       30.44R WCI   0
APPLETON       MOCLDY    14   9  79 N15       30.40R WCI  -1
OSHKOSH        CLOUDY    15  12  88 N12       30.41R WCI   2
FOND DU LAC    FLURRIES  15  10  80 N7        30.41R WCI   5
$$

WIZ022-050-052-161200-
EAST CENTRAL WISCONSIN

CITY           SKY/WX    TMP DP  RH WIND       PRES   REMARKS
EPHRAIM        FLURRIES   5   2  88 N7        30.41S WCI  -7
WASHINGTON ISL FAIR      10   7  89 N9        30.43R WCI  -3
STURGEON BAY   FLURRIES   8   5  87 N15       30.43R WCI  -9
MANITOWOC      LGT SNOW  18  15  88 N13       30.39S FOG     WCI   5
SHEBOYGAN      LGT SNOW  17  14  88 N12       30.37S FOG     WCI   4
$$

LMZ563-521-522-541>543-161200-
LAKESHORE

STATION/POSITION TIME  TEMP    WIND        PRES    VSBY  WAVE
                       AIR SEA DIR/SP/G                  HT/PER
                 (UTC) (F)     (DEG/KT/KT) (MB)    (MI)  (FT/S)
SHEBOYGAN LKSHOR 1100   18     330/ 13/ 16 1029.8R
KEWAUNEE LKSHORE 1042   13     330/  9/ 14 1028.6R
NORTHPORT PIER   1040   13      CALM  /  2 1030.1S
MENOMINEE LKSHOR 1036    7     330/ 12/ 13 1030.5R
$$



USA.gov is the U.S. government's official web portal to all federal, state and local government web resources and services.